• In Hungary
  • List of Countries
  • For 7 days
  • Water Temperature
  • Satellite Maps
  • Weather Map
  • News
  • Weather Widgets
  • user-avatar
    Login

    Hourly Weather Ionino

    Today, 22 September, Saturday

    Time Temperature Precipitation Wind Pressure Humidity
    00:00 +16°C° 0 mm 2 mps 744 mmHg 95%
    01:00 +16°C° 0 mm 2 mps 744 mmHg 95%
    02:00 +16°C° 0 mm 3 mps 744 mmHg 95%
    03:00 +16°C° 0 mm 3 mps 744 mmHg 95%
    04:00 +16°C° 0 mm 3 mps 743 mmHg 96%
    05:00 +16°C° 0 mm 3 mps 743 mmHg 96%
    06:00 +17°C° 0 mm 4 mps 742 mmHg 92%
    07:00 +17°C° 0 mm 4 mps 742 mmHg 88%
    08:00 +18°C° 0 mm 4 mps 742 mmHg 84%
    09:00 +20°C° 0 mm 5 mps 741 mmHg 74%
    10:00 +21°C° 0 mm 5 mps 741 mmHg 65%
    11:00 +23°C° 0 mm 6 mps 740 mmHg 56%
    12:00 +23°C° 0 mm 6 mps 740 mmHg 53%
    13:00 +24°C° 0 mm 6 mps 740 mmHg 51%
    14:00 +24°C° 0 mm 6 mps 739 mmHg 48%
    15:00 +23°C° 0.1 mm 5 mps 739 mmHg 55%
    16:00 +21°C° 0.1 mm 5 mps 739 mmHg 61%
    17:00 +20°C° 0.1 mm 4 mps 739 mmHg 68%
    18:00 +17°C° 0.2 mm 3 mps 739 mmHg 73%
    19:00 +14°C° 0.2 mm 3 mps 740 mmHg 78%
    20:00 +13°C° 0.2 mm 2 mps 740 mmHg 83%
    21:00 +13°C° 0.1 mm 2 mps 740 mmHg 83%
    22:00 +13°C° 0.1 mm 2 mps 740 mmHg 84%
    23:00 +12°C° 0.1 mm 2 mps 739 mmHg 84%

    Tomorrow, 23 September, Sunday

    Time Temperature Precipitation Wind Pressure Humidity
    00:00 +12°C° 0.2 mm 2 mps 739 mmHg 86%
    01:00 +12°C° 0.2 mm 2 mps 739 mmHg 87%
    02:00 +12°C° 0.2 mm 2 mps 739 mmHg 89%
    03:00 +10°C° 0.7 mm 2 mps 739 mmHg 91%
    04:00 +10°C° 0.7 mm 2 mps 739 mmHg 92%
    05:00 +10°C° 0.7 mm 2 mps 739 mmHg 94%
    06:00 +10°C° 0.9 mm 2 mps 739 mmHg 94%
    07:00 +10°C° 0.9 mm 2 mps 738 mmHg 93%
    08:00 +10°C° 0.9 mm 2 mps 738 mmHg 93%
    09:00 +10°C° 0.2 mm 2 mps 738 mmHg 90%
    10:00 +11°C° 0.2 mm 3 mps 738 mmHg 88%
    11:00 +11°C° 0.2 mm 3 mps 738 mmHg 85%
    12:00 +12°C° 0.1 mm 3 mps 738 mmHg 80%
    13:00 +13°C° 0.1 mm 3 mps 738 mmHg 74%
    14:00 +13°C° 0.1 mm 4 mps 738 mmHg 69%
    15:00 +13°C° 0.2 mm 3 mps 738 mmHg 73%
    16:00 +12°C° 0.2 mm 3 mps 737 mmHg 78%
    17:00 +12°C° 0.2 mm 2 mps 737 mmHg 82%
    18:00 +10°C° 0 mm 2 mps 737 mmHg 85%
    19:00 +9°C° 0 mm 2 mps 737 mmHg 88%
    20:00 +8°C° 0 mm 2 mps 737 mmHg 91%
    21:00 +8°C° 0 mm 2 mps 737 mmHg 92%
    22:00 +8°C° 0 mm 2 mps 737 mmHg 92%
    23:00 +7°C° 0 mm 3 mps 737 mmHg 93%

    Day after tomorrow, 24 September, Monday

    Time Temperature Precipitation Wind Pressure Humidity
    00:00 +7°C° 0 mm 3 mps 737 mmHg 94%
    01:00 +7°C° 0 mm 3 mps 737 mmHg 95%
    02:00 +6°C° 0 mm 2 mps 738 mmHg 96%
    03:00 +7°C° 0 mm 3 mps 738 mmHg 95%
    04:00 +7°C° 0 mm 3 mps 738 mmHg 94%
    05:00 +7°C° 0 mm 3 mps 737 mmHg 93%
    06:00 +8°C° 0 mm 3 mps 738 mmHg 91%
    07:00 +8°C° 0 mm 3 mps 738 mmHg 90%
    08:00 +8°C° 0 mm 3 mps 738 mmHg 88%
    09:00 +9°C° 0 mm 3 mps 738 mmHg 85%
    10:00 +10°C° 0 mm 3 mps 738 mmHg 82%
    11:00 +10°C° 0 mm 3 mps 738 mmHg 79%
    12:00 +12°C° 0 mm 2 mps 737 mmHg 76%
    13:00 +12°C° 0 mm 2 mps 737 mmHg 74%
    14:00 +13°C° 0 mm 2 mps 736 mmHg 72%
    15:00 +12°C° 0.1 mm 2 mps 736 mmHg 76%
    16:00 +10°C° 0.1 mm 2 mps 736 mmHg 81%
    17:00 +11°C° 0.1 mm 1 mps 736 mmHg 85%
    18:00 +9°C° 0.2 mm 2 mps 735 mmHg 87%
    19:00 +9°C° 0.2 mm 2 mps 735 mmHg 89%
    20:00 +8°C° 0.2 mm 2 mps 734 mmHg 91%
    21:00 +8°C° 0.5 mm 3 mps 733 mmHg 91%
    22:00 +8°C° 0.5 mm 3 mps 732 mmHg 91%
    23:00 +7°C° 0.5 mm 4 mps 732 mmHg 92%

    25 September, Tuesday

    Time Temperature Precipitation Wind Pressure Humidity
    00:00 +7°C° 1 mm 4 mps 731 mmHg 91%
    01:00 +6°C° 1 mm 5 mps 730 mmHg 91%
    02:00 +6°C° 1 mm 5 mps 729 mmHg 91%
    03:00 +5°C° 1.5 mm 6 mps 729 mmHg 91%
    04:00 +5°C° 1.5 mm 6 mps 728 mmHg 91%
    05:00 +5°C° 1.5 mm 6 mps 728 mmHg 92%
    06:00 +5°C° 1.1 mm 6 mps 728 mmHg 91%
    07:00 +5°C° 1.1 mm 6 mps 728 mmHg 91%
    08:00 +5°C° 1.1 mm 7 mps 728 mmHg 90%
    09:00 +5°C° 1.1 mm 7 mps 728 mmHg 90%
    10:00 +5°C° 1.1 mm 7 mps 728 mmHg 89%
    11:00 +5°C° 1.1 mm 7 mps 729 mmHg 88%
    12:00 +5°C° 0.8 mm 7 mps 729 mmHg 86%
    13:00 +4°C° 0.8 mm 7 mps 730 mmHg 84%
    14:00 +4°C° 0.8 mm 7 mps 730 mmHg 82%
    15:00 +4°C° 0.3 mm 7 mps 731 mmHg 81%
    16:00 +4°C° 0.3 mm 7 mps 731 mmHg 80%
    17:00 +4°C° 0.3 mm 7 mps 732 mmHg 79%
    18:00 +4°C° 0.1 mm 6 mps 732 mmHg 79%
    19:00 +4°C° 0.1 mm 6 mps 733 mmHg 79%
    20:00 +3°C° 0.1 mm 6 mps 733 mmHg 79%
    21:00 +3°C° 0 mm 6 mps 734 mmHg 79%
    22:00 +3°C° 0 mm 6 mps 734 mmHg 79%
    23:00 +3°C° 0 mm 6 mps 735 mmHg 79%

    26 September, Wednesday

    Time Temperature Precipitation Wind Pressure Humidity
    00:00 +2°C° 0 mm 5 mps 735 mmHg 80%
    01:00 +2°C° 0 mm 5 mps 736 mmHg 81%
    02:00 +1°C° 0 mm 5 mps 736 mmHg 82%
    03:00 +1°C° 0 mm 5 mps 737 mmHg 83%
    04:00 +1°C° 0 mm 5 mps 737 mmHg 84%
    05:00 +1°C° 0 mm 5 mps 738 mmHg 84%
    06:00 +1°C° 0.1 mm 5 mps 738 mmHg 81%
    07:00 +2°C° 0.1 mm 5 mps 739 mmHg 77%
    08:00 +2°C° 0.1 mm 5 mps 739 mmHg 74%
    09:00 +3°C° 0 mm 5 mps 740 mmHg 69%
    10:00 +5°C° 0 mm 5 mps 741 mmHg 64%
    11:00 +6°C° 0 mm 5 mps 742 mmHg 59%
    12:00 +7°C° 0 mm 5 mps 742 mmHg 56%
    13:00 +7°C° 0 mm 5 mps 743 mmHg 54%
    14:00 +7°C° 0 mm 5 mps 743 mmHg 51%
    15:00 +6°C° 0 mm 4 mps 744 mmHg 56%
    16:00 +6°C° 0 mm 4 mps 744 mmHg 60%
    17:00 +5°C° 0 mm 3 mps 745 mmHg 65%
    18:00 +3°C° 0 mm 3 mps 745 mmHg 69%
    19:00 +3°C° 0 mm 2 mps 746 mmHg 74%
    20:00 +2°C° 0 mm 2 mps 746 mmHg 78%
    21:00 +2°C° 0 mm 2 mps 746 mmHg 78%
    22:00 +2°C° 0 mm 2 mps 746 mmHg 77%
    23:00 +1°C° 0 mm 2 mps 746 mmHg 77%

    27 September, Thursday

    Time Temperature Precipitation Wind Pressure Humidity
    00:00 +1°C° 0 mm 2 mps 746 mmHg 76%
    01:00 +1°C° 0 mm 3 mps 746 mmHg 75%
    02:00 +1°C° 0 mm 3 mps 745 mmHg 75%
    03:00 +2°C° 0 mm 3 mps 744 mmHg 75%
    04:00 +1°C° 0 mm 4 mps 744 mmHg 76%
    05:00 +3°C° 0 mm 4 mps 743 mmHg 77%
    06:00 +2°C° 0.3 mm 5 mps 742 mmHg 78%
    07:00 +3°C° 0.3 mm 5 mps 741 mmHg 80%
    08:00 +3°C° 0.3 mm 6 mps 740 mmHg 81%
    09:00 +4°C° 1 mm 6 mps 739 mmHg 83%
    10:00 +4°C° 1 mm 7 mps 738 mmHg 85%
    11:00 +4°C° 1 mm 7 mps 737 mmHg 86%
    12:00 +5°C° 1.4 mm 7 mps 736 mmHg 87%
    13:00 +5°C° 1.4 mm 7 mps 735 mmHg 88%
    14:00 +6°C° 1.4 mm 7 mps 734 mmHg 89%
    15:00 +6°C° 0.9 mm 7 mps 733 mmHg 89%
    16:00 +8°C° 0.9 mm 7 mps 732 mmHg 89%
    17:00 +9°C° 0.9 mm 7 mps 732 mmHg 89%
    18:00 +9°C° 0.8 mm 7 mps 732 mmHg 89%
    19:00 +9°C° 0.8 mm 7 mps 732 mmHg 89%
    20:00 +10°C° 0.8 mm 6 mps 732 mmHg 90%
    21:00 +10°C° 1 mm 6 mps 732 mmHg 91%
    22:00 +9°C° 1 mm 5 mps 732 mmHg 92%
    23:00 +10°C° 1 mm 4 mps 732 mmHg 92%
    Show more